EST,Max TemperatureF,Mean TemperatureF,Min TemperatureF,Max Dew PointF,MeanDew PointF,Min DewpointF,Max Humidity, Mean Humidity, Min Humidity, Max Sea Level PressureIn, Mean Sea Level PressureIn, Min Sea Level PressureIn, Max VisibilityMiles, Mean VisibilityMiles, Min VisibilityMiles, Max Wind SpeedMPH, Mean Wind SpeedMPH, Max Gust SpeedMPH,PrecipitationIn, CloudCover, Events, WindDirDegrees
2013-2-1,29,24,19,18,10,4,58,48,37,30.34,30.05,29.83,10,10,9,32,17,41,T,4,Snow,286
2013-2-2,25,21,16,21,13,5,88,69,50,30.35,30.18,30.03,10,6,1,16,6,21,0.02,6,Snow,201
2013-2-3,31,25,18,25,21,12,92,80,68,30.02,29.89,29.81,10,5,1,25,4,31,0.01,8,Snow,280
2013-2-4,32,27,22,27,16,9,85,65,45,30.07,29.98,29.90,10,8,2,24,9,29,T,6,Snow,288
2013-2-5,33,30,27,29,26,24,92,84,75,29.95,29.90,29.86,7,4,1,7,1,12,0.01,8,Snow,103
2013-2-6,38,30,22,29,24,17,100,76,52,30.36,30.12,29.92,10,6,2,18,7,22,0.00,5,,307
2013-2-7,36,28,20,22,18,14,84,62,40,30.46,30.37,30.25,10,10,8,15,6,18,0.00,6,,124
2013-2-8,38,34,29,32,28,20,89,76,63,30.22,29.90,29.77,10,6,0,32,8,41,0.11,8,Fog-Rain-Snow,341
2013-2-9,36,29,22,17,15,12,74,57,40,30.40,30.21,29.94,10,10,9,35,15,43,T,4,Snow,324
2013-2-10,42,30,17,20,16,12,84,59,33,30.49,30.38,30.24,10,10,9,18,4,100,T,4,,131
2013-2-11,48,40,32,45,35,21,100,76,52,30.22,29.87,29.68,10,4,0,25,6,32,0.26,7,Fog-Rain,104
2013-2-12,43,35,26,29,25,22,85,65,45,30.01,29.94,29.81,10,10,8,26,10,35,0.00,4,,314
2013-2-13,41,32,22,32,28,21,100,80,59,29.98,29.79,29.70,9,4,1,8,2,,0.20,6,Rain-Snow,348
2013-2-14,45,37,28,31,29,26,100,77,53,30.00,29.91,29.75,10,6,0,12,4,13,0.00,4,Fog,292
2013-2-15,51,42,32,34,31,26,96,69,42,30.02,29.99,29.94,10,8,4,18,5,23,0.23,6,Rain-Snow,293
2013-2-16,36,33,30,33,24,12,100,74,47,30.00,29.94,29.85,10,8,0,12,6,16,T,7,Fog-Snow,345
2013-2-17,32,27,21,13,9,4,60,48,36,30.17,29.94,29.84,10,10,3,33,18,39,T,4,Snow,317
2013-2-18,38,29,19,18,9,5,63,46,29,30.35,30.24,30.14,10,10,10,24,9,36,0.00,1,,296
2013-2-19,42,33,23,38,28,16,92,73,53,30.12,29.88,29.70,10,8,1,24,6,33,0.11,6,Rain-Snow,151
2013-2-20,34,29,23,18,13,10,74,60,46,30.12,29.99,29.84,10,9,2,29,19,38,T,6,Snow,299
2013-2-21,35,29,23,17,13,10,59,51,43,30.34,30.19,30.10,10,10,10,26,14,33,0.00,4,,309
2013-2-22,34,29,24,27,20,15,78,66,54,30.39,30.31,30.23,10,10,9,14,5,20,T,8,Snow,140
2013-2-23,40,36,32,38,34,28,100,89,78,30.22,30.01,29.83,9,2,0,9,4,,0.04,8,Fog-Rain,294
2013-2-24,42,36,30,37,29,18,100,74,47,30.09,29.91,29.81,10,6,1,25,12,31,0.00,6,,304
2013-2-25,46,35,23,28,22,17,78,59,40,30.23,30.18,30.11,10,10,10,13,3,15,0.00,1,,314
2013-2-26,42,34,26,35,29,22,85,72,59,30.23,30.03,29.73,10,8,2,26,9,30,0.53,7,Rain,108
2013-2-27,50,43,36,41,36,30,100,77,53,29.69,29.61,29.53,10,6,2,18,8,26,0.22,7,Rain,293
2013-2-28,44,39,34,34,31,27,92,75,57,29.70,29.65,29.62,10,10,8,20,8,25,T,7,Rain,293